Regional Weather Roundup
Issued by NWS

Home | Current Version | Previous Version | Text Only | Print | Product List | Glossary On
Versions: 1 2 3 4 5 6 7 8 9 10 11 12 13 14 15 16 17 18 19 20 21 22 23 24 25 26 27 28 29 30 31 32 33 34 35 36 37 38 39 40 41 42 43 44 45 46 47 48 49 50
000
ASUS43 KLSX 011510
RWRMO

WEATHER SUMMARY FOR MISSOURI
NATIONAL WEATHER SERVICE SPRINGFIELD MO
1000 AM CDT TUE SEP 01 2015

NOTE: "FAIR" INDICATES FEW OR NO CLOUDS BELOW 12,000 FEET WITH NO
       SIGNIFICANT WEATHER AND/OR OBSTRUCTIONS TO VISIBILITY.
       CURRENT SKY AND/OR WEATHER CONDITIONS ARE NOT AVAILABLE FOR
       CHILLICOTHE AND FARMINGTON.

MOZ001>031-035>038-043-044-053-054-011600-
...NORTHERN AND WESTERN MISSOURI...

CITY           SKY/WX    TMP DP  RH WIND       PRES   REMARKS
KANSAS CTY INT MOSUNNY   80  69  69 S12       30.03S
KANSAS C DTWN  SUNNY     82  68  62 SW12      30.02F
LEE`S SUMMIT   SUNNY     79  68  69 SW10      30.05S
ST JOSEPH      PTSUNNY   79  70  74 S9        30.01S
CHILLICOTHE      N/A     80  70  71 S8        30.04F
KIRKSVILLE     SUNNY     78  68  71 SW10      30.07S

$$
MOZ066>068-077>081-088>096-101>105-011600-
...SOUTHWEST MISSOURI...

CITY           SKY/WX    TMP DP  RH WIND       PRES   REMARKS
SPRINGFIELD    SUNNY     80  69  69 S9        30.10S
JOPLIN         SUNNY     80  67  64 S12       30.08S

$$
MOZ032>034-039>042-045>050-055>058-069>072-011600-
...CENTRAL MISSOURI...

CITY           SKY/WX    TMP DP  RH WIND       PRES   REMARKS
COLUMBIA       SUNNY     80  69  69 SW9       30.09R
JEFFERSON CITY SUNNY     81  68  64 S7        30.07F
ROLLA          SUNNY     81  70  69 SW12      30.10S
SEDALIA        SUNNY     82  68  62 SW12      30.08S
WHITEMAN AFB   SUNNY     81  68  63 SW9       30.05S
WARRENSBURG    SUNNY     79  66  65 S8        30.05S
OSAGE BEACH    SUNNY     81  70  69 SW3       30.10S

$$
MOZ051-052-059>065-011600-
...EAST CENTRAL MISSOURI...

CITY           SKY/WX    TMP DP  RH WIND       PRES   REMARKS
ST LOUIS INTL  MOSUNNY   84  70  62 SW6       30.10S
SPIRIT OF STL  SUNNY     82  71  69 SW8       30.08S
ST CHARLES     SUNNY     81  72  74 MISG      30.08S

$$
MOZ072>076-082>087-097>100-106>115-011600-
...SOUTH CENTRAL AND SOUTHEAST MISSOURI...

CITY           SKY/WX    TMP DP  RH WIND       PRES   REMARKS
CAPE GIRARDEAU SUNNY     81  70  69 W5        30.12S
FARMINGTON     SUNNY     79  72  78 S7        30.15S
POPLAR BLUFF   SUNNY     80  70  71 S5        30.11S
WEST PLAINS    SUNNY     79  70  74 VRB3      30.15S

$$



USA.gov is the U.S. government's official web portal to all federal, state and local government web resources and services.